Weather History for Elmira, NY

Change the Weather History Date:

Sunday, October 7, 2012

  Actual Average Record
Temperature  
Mean Temperature 46 °F -  
Max Temperature 53 °F 63 °F 86 °F (1941)
Min Temperature 37 °F 39 °F 25 °F (1964)
Degree Days  
Heating Degree Days 20    
Moisture  
Dew Point 38 °F    
Average Humidity 75    
Maximum Humidity 89    
Minimum Humidity 54    
Precipitation  
Precipitation 0.03 in - - ()
Sea Level Pressure  
Sea Level Pressure 30.06 in    
Wind  
Wind Speed 3 mph (WSW)    
Max Wind Speed 8 mph    
Max Gust Speed -    
Visibility 10 miles    
Events Rain    
Averages and records for this station are not official NWS values.
T = Trace of Precipitation, MM = Missing Value Source: NWS Daily Summary

Daily Weather History Graph

Daily Weather History Graph

Search for Another Location

Airport:

Trip Planner

Search our weather history database for the weather conditions in past years. The results will help you decide how hot, cold, wet, or windy it might be!

Date:

Astronomy

Oct. 07, 2012 Rise Set
Actual Time 7:11 AM EDT 6:38 PM EDT
Civil Twilight 6:43 AM EDT 7:06 PM EDT
Nautical Twilight 6:11 AM EDT 7:38 PM EDT
Astronomical Twilight 5:38 AM EDT 8:10 PM EDT
Moon 11:43 PM EDT (10/7) 1:51 PM EDT (10/7)
Length of Visible Light 12h 22m
Length of Day
11h 26m
Waning Gibbous, 56% of the Moon is Illuminated
Oct 7
Waning Gibbous
Oct 8
Last Quarter
Oct 15
New
Oct 21
First Quarter
Oct 29
Full

Hourly Weather History & Observations

Time (EDT) Temp. Windchill Dew Point Humidity Pressure Visibility Wind Dir Wind Speed Gust Speed Precip Events Conditions
1:53 AM 39.9 °F 37.8 °F 37.0 °F 89% 30.06 in 10.0 mi WNW 3.5 mph - N/A   Clear
2:53 AM 43.0 °F - 37.0 °F 80% 30.06 in 10.0 mi Calm Calm - N/A   Clear
3:53 AM 44.1 °F 42.5 °F 39.0 °F 82% 30.07 in 10.0 mi West 3.5 mph - N/A   Overcast
4:53 AM 44.1 °F - 39.0 °F 82% 30.05 in 10.0 mi Calm Calm - N/A   Mostly Cloudy
5:53 AM 44.1 °F - 39.0 °F 82% 30.03 in 10.0 mi Calm Calm - N/A   Scattered Clouds
6:53 AM 44.1 °F 41.5 °F 39.0 °F 82% 30.03 in 10.0 mi WSW 4.6 mph - N/A   Overcast
7:53 AM 44.1 °F 42.5 °F 39.9 °F 85% 30.06 in 10.0 mi SSW 3.5 mph - N/A   Overcast
8:53 AM 45.0 °F - 39.9 °F 82% 30.08 in 10.0 mi Calm Calm - N/A   Overcast
9:53 AM 46.0 °F 44.8 °F 39.9 °F 79% 30.10 in 10.0 mi West 3.5 mph - N/A   Overcast
10:53 AM 48.0 °F - 39.9 °F 74% 30.09 in 10.0 mi Calm Calm - N/A   Overcast
11:53 AM 51.1 °F - 39.9 °F 66% 30.08 in 10.0 mi Variable 4.6 mph - N/A   Overcast
12:53 PM 52.0 °F - 37.0 °F 57% 30.06 in 10.0 mi SW 8.1 mph - N/A   Overcast
1:53 PM 52.0 °F - 37.0 °F 57% 30.03 in 10.0 mi SSW 6.9 mph - N/A   Overcast
2:53 PM 52.0 °F - 37.0 °F 57% 30.01 in 10.0 mi SW 8.1 mph - N/A   Overcast
3:53 PM 52.0 °F - 36.0 °F 54% 29.99 in 10.0 mi SW 3.5 mph - N/A   Overcast
4:53 PM 51.1 °F - 36.0 °F 56% 30.01 in 10.0 mi WSW 6.9 mph - 0.00 in Rain Light Rain
5:53 PM 46.0 °F 41.9 °F 39.0 °F 76% 30.03 in 4.0 mi WSW 8.1 mph - 0.03 in Rain Light Rain
6:53 PM 45.0 °F 43.5 °F 39.9 °F 82% 30.05 in 10.0 mi West 3.5 mph - 0.00 in   Overcast
7:53 PM 45.0 °F 41.2 °F 39.9 °F 82% 30.07 in 10.0 mi WSW 6.9 mph - 0.00 in Rain Light Rain
8:50 PM 44.6 °F 43.1 °F 39.2 °F 81% 30.07 in 10.0 mi WSW 3.5 mph - 0.00 in   Mostly Cloudy
8:53 PM 44.1 °F 42.5 °F 39.9 °F 85% 30.09 in 10.0 mi WSW 3.5 mph - 0.00 in   Overcast
9:53 PM 44.1 °F 40.1 °F 37.9 °F 79% 30.11 in 10.0 mi West 6.9 mph - N/A   Overcast
10:53 PM 42.1 °F 37.7 °F 35.1 °F 76% 30.12 in 10.0 mi West 6.9 mph - N/A   Partly Cloudy
11:53 PM 37.0 °F - 33.1 °F 86% 30.14 in 10.0 mi Calm Calm - N/A   Clear